• En España
  • Lista de países
  • Para 7 días
  • Temperatura del agua
  • Mapa Satelital
  • El tiempo en el mapa
  • Informadores
  • user-avatar
    Iniciar sesión

    Tiempo cada hora Lenino

    Hoy, 22 Abril, Domingo

    Tiempo Temperatura Precipitaciones Viento Presión Humedad
    00:00 +3°C° 0 mm 6 mps 728 mmHg 75%
    01:00 +3°C° 0 mm 6 mps 728 mmHg 77%
    02:00 +2°C° 0 mm 5 mps 729 mmHg 79%
    03:00 +2°C° 0 mm 5 mps 729 mmHg 80%
    04:00 +2°C° 0 mm 5 mps 730 mmHg 80%
    05:00 +1°C° 0 mm 4 mps 730 mmHg 80%
    06:00 +3°C° 0,1 mm 4 mps 730 mmHg 78%
    07:00 +3°C° 0,1 mm 4 mps 730 mmHg 75%
    08:00 +3°C° 0,1 mm 4 mps 731 mmHg 72%
    09:00 +3°C° 0 mm 4 mps 731 mmHg 69%
    10:00 +4°C° 0 mm 4 mps 732 mmHg 67%
    11:00 +3°C° 0 mm 5 mps 732 mmHg 64%
    12:00 +3°C° 0 mm 5 mps 733 mmHg 62%
    13:00 +3°C° 0 mm 5 mps 733 mmHg 60%
    14:00 +3°C° 0 mm 5 mps 734 mmHg 58%
    15:00 +3°C° 0 mm 5 mps 734 mmHg 58%
    16:00 +2°C° 0 mm 5 mps 735 mmHg 58%
    17:00 +3°C° 0 mm 4 mps 735 mmHg 59%
    18:00 +1°C° 0 mm 4 mps 736 mmHg 60%
    19:00 0°C° 0 mm 4 mps 736 mmHg 62%
    20:00 +1°C° 0 mm 3 mps 737 mmHg 64%
    21:00 0°C° 0 mm 3 mps 737 mmHg 66%
    22:00 +1°C° 0 mm 2 mps 738 mmHg 67%
    23:00 -1°C° 0 mm 2 mps 738 mmHg 69%

    Mañana, 23 Abril, Lunes

    Tiempo Temperatura Precipitaciones Viento Presión Humedad
    00:00 -2°C° 0 mm 2 mps 739 mmHg 72%
    01:00 -3°C° 0 mm 2 mps 739 mmHg 76%
    02:00 -3°C° 0 mm 2 mps 739 mmHg 79%
    03:00 -3°C° 0 mm 2 mps 740 mmHg 80%
    04:00 -3°C° 0 mm 2 mps 740 mmHg 80%
    05:00 -3°C° 0 mm 2 mps 740 mmHg 80%
    06:00 -2°C° 0 mm 2 mps 741 mmHg 71%
    07:00 -1°C° 0 mm 3 mps 741 mmHg 61%
    08:00 +1°C° 0 mm 3 mps 741 mmHg 51%
    09:00 +2°C° 0 mm 3 mps 741 mmHg 47%
    10:00 +3°C° 0 mm 3 mps 741 mmHg 42%
    11:00 +4°C° 0 mm 3 mps 741 mmHg 38%
    12:00 +5°C° 0 mm 3 mps 741 mmHg 37%
    13:00 +7°C° 0 mm 3 mps 741 mmHg 36%
    14:00 +7°C° 0 mm 3 mps 741 mmHg 35%
    15:00 +7°C° 0 mm 2 mps 740 mmHg 37%
    16:00 +7°C° 0 mm 2 mps 740 mmHg 39%
    17:00 +6°C° 0 mm 2 mps 740 mmHg 40%
    18:00 +5°C° 0 mm 2 mps 740 mmHg 48%
    19:00 +4°C° 0 mm 1 mps 740 mmHg 55%
    20:00 +2°C° 0 mm 1 mps 741 mmHg 62%
    21:00 +2°C° 0 mm 1 mps 741 mmHg 64%
    22:00 +1°C° 0 mm 1 mps 741 mmHg 65%
    23:00 0°C° 0 mm 0 mps 740 mmHg 67%

    Pasado mañana, 24 Abril, Martes

    Tiempo Temperatura Precipitaciones Viento Presión Humedad
    00:00 0°C° 0 mm 1 mps 741 mmHg 67%
    01:00 0°C° 0 mm 1 mps 741 mmHg 68%
    02:00 0°C° 0 mm 1 mps 741 mmHg 68%
    03:00 0°C° 0 mm 1 mps 740 mmHg 68%
    04:00 0°C° 0 mm 1 mps 740 mmHg 68%
    05:00 0°C° 0 mm 1 mps 740 mmHg 68%
    06:00 +1°C° 0 mm 2 mps 740 mmHg 60%
    07:00 +3°C° 0 mm 2 mps 740 mmHg 53%
    08:00 +6°C° 0 mm 2 mps 740 mmHg 46%
    09:00 +7°C° 0 mm 3 mps 739 mmHg 44%
    10:00 +8°C° 0 mm 3 mps 739 mmHg 42%
    11:00 +9°C° 0 mm 3 mps 739 mmHg 39%
    12:00 +10°C° 0 mm 3 mps 738 mmHg 40%
    13:00 +10°C° 0 mm 4 mps 738 mmHg 42%
    14:00 +11°C° 0 mm 4 mps 737 mmHg 43%
    15:00 +10°C° 0 mm 3 mps 737 mmHg 48%
    16:00 +10°C° 0 mm 3 mps 737 mmHg 53%
    17:00 +9°C° 0 mm 3 mps 736 mmHg 58%
    18:00 +8°C° 0,3 mm 3 mps 736 mmHg 66%
    19:00 +7°C° 0,3 mm 3 mps 736 mmHg 74%
    20:00 +6°C° 0,3 mm 2 mps 735 mmHg 83%
    21:00 +6°C° 0,2 mm 2 mps 735 mmHg 86%
    22:00 +6°C° 0,2 mm 2 mps 735 mmHg 90%
    23:00 +6°C° 0,2 mm 2 mps 735 mmHg 94%

    25 Abril, Miércoles

    Tiempo Temperatura Precipitaciones Viento Presión Humedad
    00:00 +6°C° 0 mm 2 mps 734 mmHg 95%
    01:00 +6°C° 0 mm 2 mps 734 mmHg 96%
    02:00 +5°C° 0 mm 2 mps 734 mmHg 97%
    03:00 +5°C° 0,2 mm 2 mps 733 mmHg 97%
    04:00 +5°C° 0,2 mm 2 mps 733 mmHg 97%
    05:00 +5°C° 0,2 mm 2 mps 733 mmHg 97%
    06:00 +5°C° 0,2 mm 3 mps 732 mmHg 93%
    07:00 +7°C° 0,2 mm 3 mps 732 mmHg 89%
    08:00 +7°C° 0,2 mm 3 mps 732 mmHg 85%
    09:00 +8°C° 0,3 mm 3 mps 732 mmHg 85%
    10:00 +8°C° 0,3 mm 3 mps 732 mmHg 85%
    11:00 +8°C° 0,3 mm 3 mps 731 mmHg 85%
    12:00 +9°C° 0,2 mm 3 mps 732 mmHg 82%
    13:00 +8°C° 0,2 mm 4 mps 732 mmHg 79%
    14:00 +10°C° 0,2 mm 4 mps 732 mmHg 76%
    15:00 +10°C° 0,1 mm 4 mps 732 mmHg 76%
    16:00 +8°C° 0,1 mm 4 mps 733 mmHg 76%
    17:00 +8°C° 0,1 mm 4 mps 733 mmHg 76%
    18:00 +8°C° 0 mm 3 mps 733 mmHg 81%
    19:00 +7°C° 0 mm 3 mps 734 mmHg 87%
    20:00 +5°C° 0 mm 2 mps 734 mmHg 92%
    21:00 +5°C° 0 mm 2 mps 734 mmHg 92%
    22:00 +5°C° 0 mm 2 mps 734 mmHg 92%
    23:00 +4°C° 0 mm 2 mps 734 mmHg 93%

    26 Abril, Jueves

    Tiempo Temperatura Precipitaciones Viento Presión Humedad
    00:00 +5°C° 0 mm 2 mps 734 mmHg 92%
    01:00 +5°C° 0 mm 2 mps 734 mmHg 91%
    02:00 +5°C° 0 mm 2 mps 733 mmHg 90%
    03:00 +4°C° 0,5 mm 3 mps 732 mmHg 90%
    04:00 +5°C° 0,5 mm 4 mps 732 mmHg 90%
    05:00 +5°C° 0,5 mm 4 mps 731 mmHg 89%
    06:00 +5°C° 2,3 mm 4 mps 730 mmHg 91%
    07:00 +5°C° 2,3 mm 4 mps 730 mmHg 92%
    08:00 +6°C° 2,3 mm 4 mps 729 mmHg 93%
    09:00 +7°C° 0,4 mm 4 mps 729 mmHg 90%
    10:00 +10°C° 0,4 mm 4 mps 729 mmHg 88%
    11:00 +11°C° 0,4 mm 4 mps 729 mmHg 85%
    12:00 +12°C° 0,3 mm 5 mps 729 mmHg 79%
    13:00 +11°C° 0,3 mm 6 mps 730 mmHg 73%
    14:00 +13°C° 0,3 mm 6 mps 730 mmHg 67%
    15:00 +11°C° 0,2 mm 6 mps 731 mmHg 69%
    16:00 +12°C° 0,2 mm 5 mps 731 mmHg 71%
    17:00 +10°C° 0,2 mm 5 mps 732 mmHg 73%
    18:00 +9°C° 0,1 mm 5 mps 733 mmHg 78%
    19:00 +8°C° 0,1 mm 4 mps 733 mmHg 82%
    20:00 +6°C° 0,1 mm 4 mps 734 mmHg 87%
    21:00 +7°C° 0 mm 3 mps 735 mmHg 88%
    22:00 +5°C° 0 mm 3 mps 735 mmHg 90%
    23:00 +5°C° 0 mm 3 mps 736 mmHg 91%

    27 Abril, Viernes

    Tiempo Temperatura Precipitaciones Viento Presión Humedad
    00:00 +4°C° 0 mm 3 mps 736 mmHg 92%
    01:00 +4°C° 0 mm 3 mps 737 mmHg 93%
    02:00 +5°C° 0 mm 2 mps 738 mmHg 94%
    03:00 +5°C° 0 mm 2 mps 738 mmHg 95%
    04:00 +4°C° 0 mm 2 mps 738 mmHg 95%
    05:00 +4°C° 0 mm 2 mps 739 mmHg 96%
    06:00 +5°C° 0 mm 2 mps 739 mmHg 90%
    07:00 +7°C° 0 mm 2 mps 739 mmHg 83%
    08:00 +8°C° 0 mm 2 mps 740 mmHg 77%
    09:00 +9°C° 0 mm 2 mps 740 mmHg 71%
    10:00 +12°C° 0 mm 2 mps 740 mmHg 64%
    11:00 +13°C° 0 mm 2 mps 741 mmHg 58%
    12:00 +13°C° 0 mm 2 mps 741 mmHg 56%
    13:00 +14°C° 0 mm 2 mps 741 mmHg 53%
    14:00 +14°C° 0 mm 2 mps 741 mmHg 51%
    15:00 +14°C° 0 mm 2 mps 741 mmHg 54%
    16:00 +14°C° 0 mm 2 mps 741 mmHg 58%
    17:00 +13°C° 0 mm 2 mps 741 mmHg 61%
    18:00 +12°C° 0 mm 2 mps 741 mmHg 69%
    19:00 +9°C° 0 mm 2 mps 741 mmHg 76%
    20:00 +9°C° 0 mm 1 mps 741 mmHg 84%
    21:00 +8°C° 0 mm 1 mps 741 mmHg 86%
    22:00 +8°C° 0 mm 1 mps 742 mmHg 89%
    23:00 +7°C° 0 mm 1 mps 742 mmHg 91%
    Mostrar más